Saint Bonnet de Bellac- Haute Vienne - France
Donnes mto: jeudi, 11/10/2012
Date Horaire Temp. E. Hum. E. P.atmo. Pluie Vent Direction Direction Ensoleilleme Solaire P. de rose Temp au vent Rafales
11/10/2012 00:00 14,4 C 91 % 1011,4 hPa 0,0 mm 0,0 km/h (0 Bft) SO 225 0 min 0 W/m 12,9 C 14,4 C 0,0 km/h (0 Bft)
11/10/2012 00:10 14,4 C 91 % 1011,3 hPa 0,0 mm 0,0 km/h (0 Bft) SO 225 0 min 0 W/m 12,9 C 14,4 C 0,0 km/h (0 Bft)
11/10/2012 00:20 14,3 C 91 % 1011,4 hPa 0,0 mm 0,0 km/h (0 Bft) SO 225 0 min 0 W/m 12,8 C 14,3 C 0,0 km/h (0 Bft)
11/10/2012 00:30 14,1 C 91 % 1011,3 hPa 0,0 mm 0,0 km/h (0 Bft) SO 225 0 min 0 W/m 12,7 C 14,1 C 0,0 km/h (0 Bft)
11/10/2012 00:40 13,9 C 91 % 1011,2 hPa 0,0 mm 0,0 km/h (0 Bft) SO 225 0 min 0 W/m 12,5 C 13,9 C 0,0 km/h (0 Bft)
11/10/2012 00:50 13,8 C 92 % 1011,1 hPa 0,0 mm 0,0 km/h (0 Bft) SO 225 0 min 0 W/m 12,5 C 13,8 C 0,0 km/h (0 Bft)
11/10/2012 01:00 13,8 C 91 % 1011,1 hPa 0,0 mm 0,0 km/h (0 Bft) SO 225 0 min 0 W/m 12,4 C 13,8 C 0,0 km/h (0 Bft)
11/10/2012 01:10 13,7 C 92 % 1011,0 hPa 0,0 mm 0,0 km/h (0 Bft) SO 225 0 min 0 W/m 12,4 C 13,7 C 0,0 km/h (0 Bft)
11/10/2012 01:20 13,7 C 92 % 1010,8 hPa 0,0 mm 0,0 km/h (0 Bft) S 180 0 min 0 W/m 12,4 C 13,7 C 0,0 km/h (0 Bft)
11/10/2012 01:30 13,8 C 92 % 1010,8 hPa 0,0 mm 0,0 km/h (0 Bft) S-SE 157 0 min 0 W/m 12,5 C 13,8 C 0,0 km/h (0 Bft)
11/10/2012 01:40 13,8 C 92 % 1010,7 hPa 0,0 mm 0,0 km/h (0 Bft) S-SE 157 0 min 0 W/m 12,5 C 13,8 C 0,0 km/h (0 Bft)
11/10/2012 01:50 13,8 C 92 % 1010,6 hPa 0,0 mm 0,0 km/h (0 Bft) S-SE 157 0 min 0 W/m 12,5 C 13,8 C 0,0 km/h (0 Bft)
11/10/2012 02:00 13,6 C 92 % 1010,5 hPa 0,0 mm 0,0 km/h (0 Bft) S-SE 157 0 min 0 W/m 12,3 C 13,6 C 0,0 km/h (0 Bft)
11/10/2012 02:10 13,5 C 92 % 1010,3 hPa 0,0 mm 0,0 km/h (0 Bft) S-SE 157 0 min 0 W/m 12,2 C 13,5 C 0,0 km/h (0 Bft)
11/10/2012 02:20 13,6 C 93 % 1010,3 hPa 0,0 mm 0,0 km/h (0 Bft) S-SE 157 0 min 0 W/m 12,5 C 13,6 C 0,0 km/h (0 Bft)
11/10/2012 02:30 13,6 C 93 % 1010,1 hPa 0,0 mm 1,4 km/h (1 Bft) E-SE 112 0 min 0 W/m 12,5 C 13,6 C 4,0 km/h (1 Bft)
11/10/2012 02:40 13,6 C 93 % 1010,0 hPa 0,0 mm 1,8 km/h (1 Bft) SE 135 0 min 0 W/m 12,5 C 13,6 C 4,3 km/h (1 Bft)
11/10/2012 02:50 13,6 C 93 % 1010,0 hPa 0,0 mm 0,4 km/h (0 Bft) SE 135 0 min 0 W/m 12,5 C 13,6 C 0,4 km/h (0 Bft)
11/10/2012 03:02 13,6 C 93 % 1009,8 hPa 0,0 mm 0,0 km/h (0 Bft) E-SE 112 0 min 0 W/m 12,5 C 13,6 C 0,0 km/h (0 Bft)
11/10/2012 03:10 13,5 C 92 % 1009,7 hPa 0,0 mm 0,0 km/h (0 Bft) E-SE 112 0 min 0 W/m 12,2 C 13,5 C 0,0 km/h (0 Bft)
11/10/2012 03:20 13,4 C 92 % 1009,6 hPa 0,0 mm 0,0 km/h (0 Bft) E-SE 112 0 min 0 W/m 12,1 C 13,4 C 0,0 km/h (0 Bft)
11/10/2012 03:30 13,3 C 92 % 1009,5 hPa 0,0 mm 0,4 km/h (0 Bft) E-SE 112 0 min 0 W/m 12,0 C 13,3 C 3,2 km/h (1 Bft)
11/10/2012 03:40 13,2 C 93 % 1009,3 hPa 0,0 mm 0,0 km/h (0 Bft) E-SE 112 0 min 0 W/m 12,1 C 13,2 C 0,0 km/h (0 Bft)
11/10/2012 03:50 13,1 C 93 % 1009,1 hPa 0,0 mm 2,5 km/h (1 Bft) E-SE 112 0 min 0 W/m 12,0 C 13,1 C 2,5 km/h (1 Bft)
11/10/2012 04:00 13,1 C 93 % 1009,1 hPa 0,0 mm 0,4 km/h (0 Bft) E-SE 112 0 min 0 W/m 12,0 C 13,1 C 4,0 km/h (1 Bft)
11/10/2012 04:10 12,9 C 93 % 1008,9 hPa 0,0 mm 1,1 km/h (1 Bft) SE 135 0 min 0 W/m 11,8 C 12,9 C 3,2 km/h (1 Bft)
11/10/2012 04:20 12,9 C 93 % 1008,6 hPa 0,0 mm 2,5 km/h (1 Bft) E-SE 112 0 min 0 W/m 11,8 C 12,9 C 3,2 km/h (1 Bft)
11/10/2012 04:30 13,0 C 93 % 1008,5 hPa 0,0 mm 3,6 km/h (1 Bft) E-SE 112 0 min 0 W/m 11,9 C 13,0 C 6,8 km/h (2 Bft)
11/10/2012 04:40 13,1 C 93 % 1008,6 hPa 0,0 mm 2,9 km/h (1 Bft) SE 135 0 min 0 W/m 12,0 C 13,1 C 6,1 km/h (2 Bft)
11/10/2012 04:50 13,0 C 93 % 1008,7 hPa 0,0 mm 0,0 km/h (0 Bft) SE 135 0 min 0 W/m 11,9 C 13,0 C 0,0 km/h (0 Bft)
11/10/2012 05:00 12,8 C 93 % 1008,7 hPa 0,0 mm 0,0 km/h (0 Bft) SE 135 0 min 0 W/m 11,7 C 12,8 C 0,0 km/h (0 Bft)
11/10/2012 05:10 12,6 C 94 % 1008,6 hPa 0,0 mm 0,0 km/h (0 Bft) SE 135 0 min 0 W/m 11,7 C 12,6 C 0,0 km/h (0 Bft)
11/10/2012 05:20 12,6 C 94 % 1008,5 hPa 0,0 mm 0,0 km/h (0 Bft) SE 135 0 min 0 W/m 11,7 C 12,6 C 0,0 km/h (0 Bft)
11/10/2012 05:30 12,6 C 94 % 1008,5 hPa 0,0 mm 2,2 km/h (1 Bft) E-SE 112 0 min 0 W/m 11,7 C 12,6 C 3,6 km/h (1 Bft)
11/10/2012 05:40 12,8 C 94 % 1008,4 hPa 0,0 mm 1,4 km/h (1 Bft) E-SE 112 0 min 0 W/m 11,9 C 12,8 C 4,0 km/h (1 Bft)
11/10/2012 05:50 12,8 C 94 % 1008,2 hPa 0,0 mm 2,2 km/h (1 Bft) E-SE 112 0 min 0 W/m 11,9 C 12,8 C 4,3 km/h (1 Bft)
11/10/2012 06:00 12,9 C 94 % 1008,0 hPa 0,0 mm 2,9 km/h (1 Bft) SE 135 0 min 0 W/m 12,0 C 12,9 C 7,2 km/h (2 Bft)
11/10/2012 06:10 13,0 C 94 % 1008,0 hPa 0,0 mm 1,8 km/h (1 Bft) SE 135 0 min 0 W/m 12,1 C 13,0 C 3,6 km/h (1 Bft)
11/10/2012 06:20 13,1 C 94 % 1007,9 hPa 0,0 mm 0,0 km/h (0 Bft) SE 135 0 min 0 W/m 12,2 C 13,1 C 0,0 km/h (0 Bft)
11/10/2012 06:30 13,1 C 94 % 1007,8 hPa 0,0 mm 0,0 km/h (0 Bft) SE 135 0 min 0 W/m 12,2 C 13,1 C 0,0 km/h (0 Bft)
11/10/2012 06:40 13,1 C 94 % 1007,8 hPa 0,0 mm 1,1 km/h (1 Bft) SE 135 0 min 0 W/m 12,2 C 13,1 C 3,6 km/h (1 Bft)
11/10/2012 06:50 13,0 C 94 % 1007,7 hPa 0,0 mm 0,0 km/h (0 Bft) E-SE 112 0 min 0 W/m 12,1 C 13,0 C 0,0 km/h (0 Bft)
11/10/2012 07:00 12,9 C 94 % 1007,7 hPa 0,0 mm 1,1 km/h (1 Bft) E-SE 112 0 min 0 W/m 12,0 C 12,9 C 2,9 km/h (1 Bft)
11/10/2012 07:10 13,1 C 94 % 1007,6 hPa 0,0 mm 1,4 km/h (1 Bft) SE 135 0 min 0 W/m 12,2 C 13,1 C 1,4 km/h (1 Bft)
11/10/2012 07:20 13,2 C 94 % 1007,5 hPa 0,0 mm 2,9 km/h (1 Bft) E-SE 112 0 min 0 W/m 12,3 C 13,2 C 4,0 km/h (1 Bft)
11/10/2012 07:30 13,2 C 94 % 1007,4 hPa 0,0 mm 2,5 km/h (1 Bft) E 90 0 min 0 W/m 12,3 C 13,2 C 4,7 km/h (1 Bft)
11/10/2012 07:40 13,3 C 94 % 1007,3 hPa 0,0 mm 1,8 km/h (1 Bft) E-SE 112 0 min 0 W/m 12,4 C 13,3 C 4,7 km/h (1 Bft)
11/10/2012 07:50 13,4 C 94 % 1007,3 hPa 0,0 mm 0,0 km/h (0 Bft) E-SE 112 0 min 0 W/m 12,5 C 13,4 C 0,0 km/h (0 Bft)
11/10/2012 08:00 13,5 C 95 % 1007,4 hPa 0,0 mm 0,0 km/h (0 Bft) E-SE 112 0 min 0 W/m 12,7 C 13,5 C 0,0 km/h (0 Bft)
11/10/2012 08:10 13,6 C 95 % 1007,2 hPa 0,0 mm 0,0 km/h (0 Bft) E-SE 112 0 min 0 W/m 12,8 C 13,6 C 0,0 km/h (0 Bft)
11/10/2012 08:20 13,7 C 95 % 1007,2 hPa 0,0 mm 1,1 km/h (1 Bft) E-SE 112 0 min 0 W/m 12,9 C 13,7 C 3,2 km/h (1 Bft)
11/10/2012 08:30 13,8 C 94 % 1007,1 hPa 0,0 mm 2,2 km/h (1 Bft) E-SE 112 0 min 0 W/m 12,9 C 13,8 C 3,6 km/h (1 Bft)
11/10/2012 08:40 13,8 C 94 % 1007,2 hPa 0,0 mm 2,9 km/h (1 Bft) SE 135 0 min 0 W/m 12,9 C 13,8 C 3,2 km/h (1 Bft)
11/10/2012 08:50 13,8 C 94 % 1007,2 hPa 0,0 mm 3,2 km/h (1 Bft) E 90 0 min 0 W/m 12,9 C 13,8 C 4,0 km/h (1 Bft)
11/10/2012 09:00 13,9 C 95 % 1007,2 hPa 0,0 mm 0,4 km/h (0 Bft) E-SE 112 0 min 0 W/m 13,1 C 13,9 C 3,6 km/h (1 Bft)
11/10/2012 09:10 13,9 C 95 % 1007,1 hPa 0,0 mm 0,0 km/h (0 Bft) E-SE 112 0 min 0 W/m 13,1 C 13,9 C 0,0 km/h (0 Bft)
11/10/2012 09:20 14,2 C 95 % 1007,2 hPa 0,0 mm 0,0 km/h (0 Bft) E-SE 112 0 min 0 W/m 13,4 C 14,2 C 0,0 km/h (0 Bft)
11/10/2012 09:30 14,4 C 95 % 1007,1 hPa 0,0 mm 0,0 km/h (0 Bft) S-SE 157 0 min 0 W/m 13,6 C 14,4 C 0,0 km/h (0 Bft)
11/10/2012 09:40 14,6 C 95 % 1006,9 hPa 0,0 mm 0,0 km/h (0 Bft) SE 135 0 min 0 W/m 13,8 C 14,6 C 0,0 km/h (0 Bft)
11/10/2012 09:50 14,6 C 95 % 1007,0 hPa 0,0 mm 0,0 km/h (0 Bft) E-SE 112 0 min 0 W/m 13,8 C 14,6 C 0,0 km/h (0 Bft)
11/10/2012 10:00 14,8 C 95 % 1007,0 hPa 0,0 mm 0,4 km/h (0 Bft) E 90 0 min 0 W/m 14,0 C 14,8 C 0,4 km/h (0 Bft)
11/10/2012 10:10 15,1 C 95 % 1007,1 hPa 0,0 mm 0,0 km/h (0 Bft) E-SE 112 0 min 0 W/m 14,3 C 15,1 C 0,0 km/h (0 Bft)
11/10/2012 10:20 15,6 C 95 % 1007,0 hPa 0,1 mm 1,1 km/h (1 Bft) S-SE 157 0 min 0 W/m 14,8 C 15,6 C 4,3 km/h (1 Bft)
11/10/2012 10:30 15,9 C 95 % 1006,8 hPa 0,5 mm 1,4 km/h (1 Bft) S 180 0 min 0 W/m 15,1 C 15,9 C 3,6 km/h (1 Bft)
11/10/2012 10:40 16,0 C 95 % 1006,8 hPa 0,0 mm 0,0 km/h (0 Bft) S 180 0 min 0 W/m 15,2 C 16,0 C 0,0 km/h (0 Bft)
11/10/2012 10:50 16,1 C 95 % 1006,9 hPa 0,0 mm 2,9 km/h (1 Bft) S-SO 202 0 min 0 W/m 15,3 C 16,1 C 5,0 km/h (1 Bft)
11/10/2012 11:00 16,0 C 94 % 1007,1 hPa 0,0 mm 4,0 km/h (1 Bft) S 180 0 min 0 W/m 15,0 C 16,0 C 4,0 km/h (1 Bft)
11/10/2012 11:10 16,0 C 93 % 1007,1 hPa 0,0 mm 2,9 km/h (1 Bft) S-SO 202 0 min 0 W/m 14,9 C 16,0 C 7,2 km/h (2 Bft)
11/10/2012 11:20 16,1 C 93 % 1007,1 hPa 0,0 mm 6,1 km/h (2 Bft) S-SO 202 0 min 0 W/m 15,0 C 16,1 C 11,5 km/h (2 Bft)
11/10/2012 11:30 16,4 C 93 % 1007,0 hPa 0,0 mm 3,2 km/h (1 Bft) S-SO 202 0 min 0 W/m 15,3 C 16,4 C 6,5 km/h (2 Bft)
11/10/2012 11:40 17,1 C 91 % 1007,0 hPa 0,0 mm 4,3 km/h (1 Bft) SO 225 0 min 0 W/m 15,6 C 17,1 C 9,4 km/h (2 Bft)
11/10/2012 11:50 17,5 C 91 % 1007,0 hPa 0,0 mm 6,8 km/h (2 Bft) SO 225 0 min 0 W/m 16,0 C 17,5 C 13,7 km/h (3 Bft)
11/10/2012 12:00 17,8 C 89 % 1007,1 hPa 0,1 mm 4,0 km/h (1 Bft) SO 225 0 min 0 W/m 16,0 C 17,8 C 6,8 km/h (2 Bft)
11/10/2012 12:10 17,8 C 89 % 1007,1 hPa 0,0 mm 6,8 km/h (2 Bft) SO 225 0 min 0 W/m 16,0 C 17,8 C 9,0 km/h (2 Bft)
11/10/2012 12:20 17,8 C 88 % 1007,0 hPa 0,0 mm 5,0 km/h (1 Bft) SO 225 0 min 0 W/m 15,8 C 17,8 C 7,6 km/h (2 Bft)
11/10/2012 12:30 18,0 C 89 % 1006,9 hPa 0,0 mm 8,3 km/h (2 Bft) S-SO 202 0 min 0 W/m 16,2 C 18,0 C 9,4 km/h (2 Bft)
11/10/2012 12:40 18,2 C 88 % 1006,8 hPa 0,0 mm 2,2 km/h (1 Bft) SO 225 0 min 0 W/m 16,2 C 18,2 C 6,1 km/h (2 Bft)
11/10/2012 12:50 18,4 C 88 % 1006,9 hPa 0,0 mm 3,6 km/h (1 Bft) S-SO 202 0 min 0 W/m 16,4 C 18,4 C 6,8 km/h (2 Bft)
11/10/2012 13:00 18,8 C 88 % 1006,8 hPa 0,0 mm 1,4 km/h (1 Bft) SO 225 0 min 0 W/m 16,8 C 18,8 C 4,3 km/h (1 Bft)
11/10/2012 13:10 18,8 C 87 % 1006,7 hPa 0,0 mm 1,1 km/h (1 Bft) SO 225 0 min 0 W/m 16,6 C 18,8 C 1,4 km/h (1 Bft)
11/10/2012 13:20 18,9 C 87 % 1006,7 hPa 0,0 mm 3,2 km/h (1 Bft) O-SO 247 0 min 0 W/m 16,7 C 18,9 C 9,4 km/h (2 Bft)
11/10/2012 13:30 18,9 C 85 % 1006,8 hPa 0,0 mm 11,2 km/h (2 Bft) SO 225 0 min 0 W/m 16,3 C 18,9 C 13,3 km/h (3 Bft)
11/10/2012 13:40 18,5 C 86 % 1007,0 hPa 0,1 mm 7,9 km/h (2 Bft) SO 225 0 min 0 W/m 16,1 C 18,5 C 9,4 km/h (2 Bft)
11/10/2012 13:50 17,8 C 88 % 1006,5 hPa 1,7 mm 1,4 km/h (1 Bft) SO 225 0 min 0 W/m 15,8 C 17,8 C 2,9 km/h (1 Bft)
11/10/2012 14:00 17,6 C 90 % 1006,4 hPa 0,0 mm 2,2 km/h (1 Bft) SO 225 0 min 0 W/m 15,9 C 17,6 C 2,9 km/h (1 Bft)
11/10/2012 14:10 18,0 C 92 % 1006,5 hPa 0,0 mm 1,4 km/h (1 Bft) SO 225 0 min 0 W/m 16,7 C 18,0 C 3,6 km/h (1 Bft)
11/10/2012 14:20 18,7 C 90 % 1006,6 hPa 0,0 mm 7,9 km/h (2 Bft) SO 225 0 min 0 W/m 17,0 C 18,7 C 7,9 km/h (2 Bft)
11/10/2012 14:30 18,8 C 89 % 1006,4 hPa 0,0 mm 6,8 km/h (2 Bft) O-SO 247 0 min 0 W/m 16,9 C 18,8 C 6,8 km/h (2 Bft)
11/10/2012 14:40 18,8 C 88 % 1006,3 hPa 0,0 mm 6,8 km/h (2 Bft) SO 225 0 min 0 W/m 16,8 C 18,8 C 15,1 km/h (3 Bft)
11/10/2012 14:50 18,6 C 88 % 1006,2 hPa 0,0 mm 7,9 km/h (2 Bft) SO 225 0 min 0 W/m 16,6 C 18,6 C 10,1 km/h (2 Bft)
11/10/2012 15:00 18,5 C 88 % 1006,2 hPa 0,0 mm 2,5 km/h (1 Bft) SO 225 0 min 0 W/m 16,5 C 18,5 C 4,0 km/h (1 Bft)
11/10/2012 15:10 18,5 C 88 % 1006,1 hPa 0,0 mm 6,8 km/h (2 Bft) O-SO 247 0 min 0 W/m 16,5 C 18,5 C 11,2 km/h (2 Bft)
11/10/2012 15:20 18,3 C 88 % 1006,0 hPa 0,0 mm 10,4 km/h (2 Bft) S-SO 202 0 min 0 W/m 16,3 C 18,3 C 15,1 km/h (3 Bft)
11/10/2012 15:30 18,3 C 88 % 1005,9 hPa 0,0 mm 4,0 km/h (1 Bft) O-SO 247 0 min 0 W/m 16,3 C 18,3 C 6,5 km/h (2 Bft)
11/10/2012 15:40 18,3 C 88 % 1006,0 hPa 0,0 mm 6,5 km/h (2 Bft) SO 225 0 min 0 W/m 16,3 C 18,3 C 8,3 km/h (2 Bft)
11/10/2012 15:50 18,3 C 88 % 1005,9 hPa 0,0 mm 10,8 km/h (2 Bft) S-SO 202 0 min 0 W/m 16,3 C 18,3 C 14,0 km/h (3 Bft)
11/10/2012 16:00 18,3 C 88 % 1005,7 hPa 0,0 mm 4,3 km/h (1 Bft) SO 225 0 min 0 W/m 16,3 C 18,3 C 8,3 km/h (2 Bft)
11/10/2012 16:10 18,6 C 89 % 1005,7 hPa 0,0 mm 2,2 km/h (1 Bft) SO 225 0 min 0 W/m 16,7 C 18,6 C 2,2 km/h (1 Bft)
11/10/2012 16:20 19,1 C 87 % 1005,6 hPa 0,0 mm 3,2 km/h (1 Bft) O-SO 247 0 min 0 W/m 16,9 C 19,1 C 4,3 km/h (1 Bft)
11/10/2012 16:30 19,4 C 85 % 1005,6 hPa 0,0 mm 1,4 km/h (1 Bft) S-SO 202 0 min 0 W/m 16,8 C 19,4 C 2,9 km/h (1 Bft)
11/10/2012 16:40 19,4 C 85 % 1005,3 hPa 0,0 mm 5,8 km/h (2 Bft) S-SO 202 0 min 0 W/m 16,8 C 19,4 C 8,6 km/h (2 Bft)
11/10/2012 16:50 19,4 C 85 % 1005,4 hPa 0,0 mm 1,1 km/h (1 Bft) SO 225 0 min 0 W/m 16,8 C 19,4 C 4,3 km/h (1 Bft)
11/10/2012 17:00 19,3 C 84 % 1005,4 hPa 0,0 mm 0,0 km/h (0 Bft) SO 225 0 min 0 W/m 16,5 C 19,3 C 0,0 km/h (0 Bft)
11/10/2012 17:10 19,0 C 85 % 1005,4 hPa 0,0 mm 5,0 km/h (1 Bft) SO 225 0 min 0 W/m 16,4 C 19,0 C 5,0 km/h (1 Bft)
11/10/2012 17:20 18,6 C 85 % 1005,5 hPa 0,1 mm 2,5 km/h (1 Bft) SO 225 0 min 0 W/m 16,0 C 18,6 C 7,9 km/h (2 Bft)
11/10/2012 17:30 18,1 C 86 % 1005,5 hPa 0,1 mm 1,4 km/h (1 Bft) O-SO 247 0 min 0 W/m 15,7 C 18,1 C 4,0 km/h (1 Bft)
11/10/2012 17:40 17,6 C 87 % 1005,7 hPa 0,1 mm 4,0 km/h (1 Bft) SO 225 0 min 0 W/m 15,4 C 17,6 C 8,6 km/h (2 Bft)
11/10/2012 17:50 17,1 C 88 % 1005,7 hPa 0,0 mm 6,1 km/h (2 Bft) S-SO 202 0 min 0 W/m 15,1 C 17,1 C 8,3 km/h (2 Bft)
11/10/2012 18:00 16,8 C 89 % 1005,8 hPa 0,1 mm 2,5 km/h (1 Bft) SO 225 0 min 0 W/m 15,0 C 16,8 C 6,5 km/h (2 Bft)
11/10/2012 18:10 16,6 C 90 % 1005,8 hPa 0,0 mm 4,0 km/h (1 Bft) S-SO 202 0 min 0 W/m 15,0 C 16,6 C 7,9 km/h (2 Bft)
11/10/2012 18:20 16,4 C 91 % 1005,7 hPa 0,0 mm 5,0 km/h (1 Bft) SO 225 0 min 0 W/m 14,9 C 16,4 C 7,6 km/h (2 Bft)
11/10/2012 18:30 16,4 C 91 % 1005,7 hPa 0,0 mm 3,2 km/h (1 Bft) SO 225 0 min 0 W/m 14,9 C 16,4 C 6,5 km/h (2 Bft)
11/10/2012 18:40 16,4 C 91 % 1005,7 hPa 0,0 mm 2,9 km/h (1 Bft) S-SO 202 0 min 0 W/m 14,9 C 16,4 C 6,5 km/h (2 Bft)
11/10/2012 18:50 16,5 C 92 % 1005,6 hPa 0,0 mm 4,0 km/h (1 Bft) SO 225 0 min 0 W/m 15,2 C 16,5 C 6,8 km/h (2 Bft)
11/10/2012 19:00 16,5 C 92 % 1005,6 hPa 0,0 mm 5,0 km/h (1 Bft) SO 225 0 min 0 W/m 15,2 C 16,5 C 6,8 km/h (2 Bft)
11/10/2012 19:10 16,5 C 92 % 1005,7 hPa 0,0 mm 5,0 km/h (1 Bft) SO 225 0 min 0 W/m 15,2 C 16,5 C 5,0 km/h (1 Bft)
11/10/2012 19:20 16,4 C 92 % 1005,8 hPa 0,0 mm 7,2 km/h (2 Bft) SO 225 0 min 0 W/m 15,1 C 16,4 C 12,6 km/h (3 Bft)
11/10/2012 19:30 16,3 C 92 % 1005,9 hPa 0,0 mm 2,9 km/h (1 Bft) S-SO 202 0 min 0 W/m 15,0 C 16,3 C 6,5 km/h (2 Bft)
11/10/2012 19:40 16,1 C 93 % 1006,0 hPa 0,0 mm 2,9 km/h (1 Bft) N 360 0 min 0 W/m 15,0 C 16,1 C 2,9 km/h (1 Bft)
11/10/2012 19:50 16,1 C 93 % 1006,1 hPa 0,0 mm 2,9 km/h (1 Bft) SO 225 0 min 0 W/m 15,0 C 16,1 C 6,5 km/h (2 Bft)
11/10/2012 20:00 16,0 C 93 % 1006,2 hPa 0,0 mm 0,4 km/h (0 Bft) SO 225 0 min 0 W/m 14,9 C 16,0 C 3,2 km/h (1 Bft)
11/10/2012 20:10 15,9 C 93 % 1006,3 hPa 0,0 mm 3,6 km/h (1 Bft) S-SO 202 0 min 0 W/m 14,8 C 15,9 C 6,5 km/h (2 Bft)
11/10/2012 20:20 15,9 C 93 % 1006,4 hPa 0,0 mm 1,1 km/h (1 Bft) SO 225 0 min 0 W/m 14,8 C 15,9 C 4,3 km/h (1 Bft)
11/10/2012 20:30 15,9 C 93 % 1006,5 hPa 0,0 mm 2,2 km/h (1 Bft) SO 225 0 min 0 W/m 14,8 C 15,9 C 4,3 km/h (1 Bft)
11/10/2012 20:40 15,8 C 93 % 1006,7 hPa 0,0 mm 2,9 km/h (1 Bft) S-SO 202 0 min 0 W/m 14,7 C 15,8 C 4,0 km/h (1 Bft)
11/10/2012 20:50 15,6 C 93 % 1006,7 hPa 0,0 mm 3,2 km/h (1 Bft) O-SO 247 0 min 0 W/m 14,5 C 15,6 C 7,6 km/h (2 Bft)
11/10/2012 21:00 15,4 C 93 % 1006,8 hPa 0,0 mm 3,6 km/h (1 Bft) O 270 0 min 0 W/m 14,3 C 15,4 C 7,6 km/h (2 Bft)
11/10/2012 21:10 15,4 C 93 % 1006,9 hPa 0,0 mm 2,9 km/h (1 Bft) S-SO 202 0 min 0 W/m 14,3 C 15,4 C 6,1 km/h (2 Bft)
11/10/2012 21:20 15,4 C 93 % 1007,0 hPa 0,0 mm 2,5 km/h (1 Bft) O-SO 247 0 min 0 W/m 14,3 C 15,4 C 4,3 km/h (1 Bft)
11/10/2012 21:30 15,3 C 94 % 1007,0 hPa 0,0 mm 2,9 km/h (1 Bft) S-SO 202 0 min 0 W/m 14,3 C 15,3 C 4,0 km/h (1 Bft)
11/10/2012 21:40 15,3 C 94 % 1007,2 hPa 0,0 mm 1,4 km/h (1 Bft) SO 225 0 min 0 W/m 14,3 C 15,3 C 6,8 km/h (2 Bft)
11/10/2012 21:50 15,3 C 94 % 1007,2 hPa 0,0 mm 2,2 km/h (1 Bft) S-SO 202 0 min 0 W/m 14,3 C 15,3 C 4,3 km/h (1 Bft)
11/10/2012 22:00 15,4 C 94 % 1007,3 hPa 0,0 mm 1,8 km/h (1 Bft) SO 225 0 min 0 W/m 14,4 C 15,4 C 4,0 km/h (1 Bft)
11/10/2012 22:10 15,5 C 94 % 1007,3 hPa 0,0 mm 9,0 km/h (2 Bft) S-SO 202 0 min 0 W/m 14,5 C 15,5 C 13,0 km/h (3 Bft)
11/10/2012 22:20 15,6 C 94 % 1007,3 hPa 0,0 mm 7,2 km/h (2 Bft) S-SO 202 0 min 0 W/m 14,6 C 15,6 C 9,0 km/h (2 Bft)
11/10/2012 22:30 15,6 C 94 % 1007,3 hPa 0,0 mm 7,6 km/h (2 Bft) S-SO 202 0 min 0 W/m 14,6 C 15,6 C 10,1 km/h (2 Bft)
11/10/2012 22:40 15,5 C 94 % 1007,4 hPa 0,3 mm 9,0 km/h (2 Bft) O-SO 247 0 min 0 W/m 14,5 C 15,5 C 12,2 km/h (2 Bft)
11/10/2012 22:50 15,4 C 93 % 1007,6 hPa 0,0 mm 7,9 km/h (2 Bft) S-SO 202 0 min 0 W/m 14,3 C 15,4 C 7,9 km/h (2 Bft)
11/10/2012 23:00 15,2 C 93 % 1007,7 hPa 0,0 mm 5,0 km/h (1 Bft) O-SO 247 0 min 0 W/m 14,1 C 15,2 C 5,0 km/h (1 Bft)
11/10/2012 23:10 15,1 C 93 % 1007,9 hPa 0,0 mm 5,0 km/h (1 Bft) O-SO 247 0 min 0 W/m 14,0 C 15,1 C 5,0 km/h (1 Bft)
11/10/2012 23:20 14,9 C 93 % 1007,8 hPa 0,0 mm 1,8 km/h (1 Bft) S-SO 202 0 min 0 W/m 13,8 C 14,9 C 6,1 km/h (2 Bft)
11/10/2012 23:30 14,8 C 92 % 1007,9 hPa 0,0 mm 3,2 km/h (1 Bft) S-SO 202 0 min 0 W/m 13,5 C 14,8 C 6,8 km/h (2 Bft)
11/10/2012 23:40 14,8 C 93 % 1007,9 hPa 0,0 mm 2,9 km/h (1 Bft) S-SO 202 0 min 0 W/m 13,7 C 14,8 C 6,1 km/h (2 Bft)
11/10/2012 23:50 14,6 C 93 % 1008,0 hPa 0,0 mm 5,0 km/h (1 Bft) SO 225 0 min 0 W/m 13,5 C 14,6 C 8,6 km/h (2 Bft)
_ Min-Heure 05:30 17:00 16:40 - 17:00 - - - - 05:30 05:30 17:00
Minimum _ 12,6 C 84 % 1005,3 hPa - 0,0 km/h (0 Bft) - - - - 11,7 C 12,6 C 0,0 km/h (0 Bft)
_ Max-Heure 16:50 10:50 00:20 13:50 13:30 - - 23:50 23:50 14:20 16:50 15:20
Maximum _ 19,4 C 95 % 1011,4 hPa 1,7 mm 11,2 km/h
SO (2 Bft)
- - 0 min 0 W/m 17,0 C 19,4 C 15,1 km/h
S-SO (3 Bft)
Moyenne _ 15,5 C 92 % 1007,5 hPa #3,2 mm 2,7 km/h (1 Bft) SO - #0 min. 0 W/m 14,2 C 15,5 C 4,6 km/h (1 Bft)
Saint Bonnet de Bellac- Haute Vienne - France